| time (UTC) | temp C | wind direction | speed KPH | gust KPH | rain 1hr cm | rain 24hr cm | rain mn cm | humidity % | barometer mb |
| 20260506135605 | 17 | 0.0 | 0.0 | 0.00 | 0.03 | 0.03 | 72 | 990.2 | |
| 20260506134602 | 17 | 0.0 | 0.0 | 0.00 | 0.03 | 0.03 | 72 | 990.1 | |
| 20260506133554 | 17 | 0.0 | 0.0 | 0.00 | 0.03 | 0.03 | 72 | 990.2 | |
| 20260506132611 | 17 | 0.0 | 0.0 | 0.00 | 0.03 | 0.03 | 72 | 990.2 | |
| 20260506131541 | 17 | 0.0 | 0.0 | 0.00 | 0.03 | 0.03 | 73 | 990.2 | |
| 20260506130538 | 17 | 0.0 | 0.0 | 0.00 | 0.03 | 0.03 | 75 | 990.0 | |
| 20260506125529 | 16 | 0.0 | 0.0 | 0.00 | 0.03 | 0.03 | 76 | 990.2 | |
| 20260506124526 | 16 | 0.0 | 0.0 | 0.00 | 0.03 | 0.03 | 74 | 990.2 | |
| 20260506123517 | 17 | 0.0 | 0.0 | 0.00 | 0.03 | 0.03 | 71 | 990.0 | |
| 20260506122614 | 17 | 0.0 | 0.0 | 0.00 | 0.03 | 0.03 | 69 | 989.9 | |
| 20260506121605 | 18 | 0.0 | 0.0 | 0.00 | 0.03 | 0.03 | 67 | 990.0 | |
| 20260506120602 | 19 | 0.0 | 0.0 | 0.00 | 0.03 | 0.03 | 66 | 990.0 | |
| 20260506115554 | 18 | 0.0 | 0.0 | 0.00 | 0.03 | 0.03 | 69 | 989.9 | |
| 20260506114551 | 17 | 0.0 | 0.0 | 0.00 | 0.03 | 0.03 | 73 | 990.1 | |
| 20260506113602 | 16 | 0.0 | 0.0 | 0.00 | 0.03 | 0.03 | 75 | 990.3 | |
| 20260506112539 | 17 | 0.0 | 0.0 | 0.00 | 0.03 | 0.03 | 73 | 990.4 | |
| 20260506111529 | 17 | 0.0 | 0.0 | 0.00 | 0.03 | 0.03 | 71 | 990.2 | |
| 20260506110526 | 18 | 0.0 | 0.0 | 0.00 | 0.03 | 0.03 | 68 | 990.2 | |
| 20260506105517 | 18 | 0.0 | 0.0 | 0.00 | 0.03 | 0.03 | 68 | 990.1 | |
| 20260506104614 | 18 | 0.0 | 0.0 | 0.00 | 0.03 | 0.03 | 68 | 990.0 | |
| 20260506103605 | 18 | 0.0 | 0.0 | 0.00 | 0.03 | 0.03 | 69 | 989.9 | |
| 20260506102602 | 17 | 0.0 | 0.0 | 0.00 | 0.03 | 0.03 | 69 | 990.1 | |
| 20260506101553 | 17 | 0.0 | 0.0 | 0.00 | 0.03 | 0.03 | 72 | 990.0 | |
| 20260506100551 | 16 | 0.0 | 0.0 | 0.00 | 0.03 | 0.03 | 74 | 990.1 | |
| 20260506095542 | 16 | 0.0 | 0.0 | 0.00 | 0.03 | 0.03 | 77 | 990.0 | |
| 20260506094538 | 15 | 0.0 | 0.0 | 0.00 | 0.03 | 0.03 | 77 | 990.1 | |
| 20260506093529 | 16 | 0.0 | 0.0 | 0.00 | 0.03 | 0.03 | 75 | 990.2 | |
| 20260506092526 | 16 | 0.0 | 0.0 | 0.00 | 0.03 | 0.03 | 75 | 989.8 | |
| 20260506091517 | 16 | 0.0 | 0.0 | 0.03 | 0.03 | 0.03 | 75 | 989.8 | |
| 20260506090614 | 16 | 0.0 | 0.0 | 0.03 | 0.03 | 0.03 | 74 | 989.8 | |
| 20260506085605 | 16 | 0.0 | 0.0 | 0.03 | 0.03 | 0.03 | 74 | 989.9 | |
| 20260506084622 | 16 | 0.0 | 0.0 | 0.03 | 0.03 | 0.03 | 78 | 989.8 | |
| 20260506083554 | 14 | 0.0 | 0.0 | 0.03 | 0.03 | 0.03 | 87 | 989.6 | |
| 20260506082610 | 13 | 0.0 | 0.0 | 0.03 | 0.03 | 0.03 | 87 | 989.6 | |
| 20260506081541 | 13 | 0.0 | 0.0 | 0.00 | 0.00 | 0.00 | 85 | 989.7 | |
| 20260506080558 | 13 | 0.0 | 0.0 | 0.00 | 0.00 | 0.00 | 81 | 989.9 | |
| 20260506073517 | 13 | 0.0 | 0.0 | 0.00 | 0.00 | 0.00 | 83 | 989.5 | |
| 20260506072614 | 13 | 0.0 | 0.0 | 0.00 | 0.00 | 0.00 | 83 | 989.6 | |
| 20260506071605 | 13 | 0.0 | 0.0 | 0.00 | 0.00 | 0.00 | 84 | 989.8 | |
| 20260506070602 | 13 | 0.0 | 0.0 | 0.00 | 0.00 | 0.00 | 85 | 989.7 | |
| 20260506061529 | 12 | 0.0 | 0.0 | 0.00 | 0.00 | 0.00 | 89 | 989.4 | |
| 20260506060526 | 12 | 0.0 | 0.0 | 0.00 | 0.00 | 0.00 | 90 | 989.5 | |
| 20260506050550 | 10 | 0.0 | 0.0 | 0.00 | 0.00 | 0.00 | 99 | 990.1 | |
| 20260506044559 | 10 | 0.0 | 0.0 | 0.00 | 0.00 | 0.00 | 99 | 990.3 | |
| 20260506043529 | 10 | 0.0 | 0.0 | 0.00 | 0.00 | 0.00 | 99 | 990.2 | |
| 20260506042526 | 10 | 0.0 | 0.0 | 0.00 | 0.00 | 0.00 | 99 | 990.0 | |
| 20260506041517 | 10 | 0.0 | 0.0 | 0.00 | 0.00 | 0.00 | 99 | 990.3 | |
| 20260506040614 | 10 | 0.0 | 0.0 | 0.00 | 0.00 | 0.00 | 99 | 990.4 | |
| 20260506035605 | 10 | 0.0 | 0.0 | 0.00 | 0.00 | 0.00 | 99 | 990.7 | |
| 20260506034602 | 10 | 0.0 | 0.0 | 0.00 | 0.00 | 0.00 | 99 | 990.7 | |
| 20260506033554 | 10 | 0.0 | 0.0 | 0.00 | 0.00 | 0.00 | 99 | 990.9 | |
| 20260506032551 | 10 | 0.0 | 0.0 | 0.00 | 0.00 | 0.00 | 99 | 991.2 | |
| 20260506031607 | 10 | 0.0 | 0.0 | 0.00 | 0.00 | 0.00 | 99 | 991.1 | |
| 20260506030538 | 10 | 0.0 | 0.0 | 0.00 | 0.00 | 0.00 | 99 | 991.3 | |
| 20260506025529 | 10 | 0.0 | 0.0 | 0.00 | 0.00 | 0.00 | 99 | 991.4 | |
| 20260506024526 | 10 | 0.0 | 0.0 | 0.00 | 0.00 | 0.00 | 99 | 991.5 | |
| 20260506023517 | 10 | 0.0 | 0.0 | 0.00 | 0.00 | 0.00 | 99 | 991.7 | |
| 20260506022614 | 10 | 0.0 | 0.0 | 0.00 | 0.00 | 0.00 | 99 | 991.7 | |
| 20260506021605 | 10 | 0.0 | 0.0 | 0.00 | 0.00 | 0.00 | 99 | 991.7 | |
| 20260506020602 | 10 | 0.0 | 0.0 | 0.00 | 0.00 | 0.00 | 99 | 991.6 | |
| 20260506015614 | 10 | 0.0 | 0.0 | 0.00 | 0.00 | 0.00 | 99 | 991.6 | |
| 20260506014550 | 10 | 0.0 | 0.0 | 0.00 | 0.00 | 0.00 | 99 | 991.8 | |
| 20260506013541 | 10 | 0.0 | 0.0 | 0.00 | 0.00 | 0.00 | 99 | 991.8 | |
| 20260506012538 | 10 | 0.0 | 0.0 | 0.00 | 0.00 | 0.00 | 99 | 992.0 | |
| 20260506011529 | 10 | 0.0 | 0.0 | 0.00 | 0.00 | 0.00 | 99 | 992.1 | |
| 20260506010526 | 10 | 0.0 | 0.0 | 0.00 | 0.00 | 0.00 | 99 | 992.3 | |
| 20260506005517 | 10 | 0.0 | 0.0 | 0.00 | 0.00 | 0.00 | 99 | 992.3 | |
| 20260506004614 | 10 | 0.0 | 0.0 | 0.00 | 0.00 | 0.00 | 99 | 992.1 | |
| 20260506003625 | 10 | 0.0 | 0.0 | 0.00 | 0.00 | 0.00 | 99 | 992.2 | |
| 20260506002602 | 10 | 0.0 | 0.0 | 0.00 | 0.00 | 0.00 | 99 | 992.0 | |
| 20260506001554 | 10 | 0.0 | 0.0 | 0.00 | 0.00 | 0.00 | 99 | 992.2 | |
| 20260506000550 | 10 | 0.0 | 0.0 | 0.00 | 0.00 | 0.00 | 99 | 992.6 | |
| 20260505235541 | 10 | 0.0 | 0.0 | 0.00 | 0.00 | 0.00 | 99 | 992.5 | |
| 20260505234538 | 10 | 0.0 | 0.0 | 0.00 | 0.00 | 0.00 | 99 | 992.9 | |
| 20260505233530 | 10 | 0.0 | 0.0 | 0.00 | 0.00 | 0.00 | 99 | 992.8 | |
| 20260505232526 | 10 | 0.0 | 0.0 | 0.00 | 0.00 | 0.00 | 99 | 992.9 | |
| 20260505231517 | 10 | 0.0 | 0.0 | 0.00 | 0.00 | 0.00 | 99 | 993.0 | |
| 20260505230614 | 10 | 0.0 | 0.0 | 0.00 | 0.00 | 0.00 | 99 | 993.1 | |
| 20260505225605 | 10 | 0.0 | 0.0 | 0.00 | 0.00 | 0.00 | 99 | 992.9 | |
| 20260505224602 | 10 | 0.0 | 0.0 | 0.00 | 0.00 | 0.00 | 99 | 992.9 | |
| 20260505223554 | 10 | 0.0 | 0.0 | 0.00 | 0.00 | 0.00 | 99 | 992.9 | |
| 20260505222551 | 10 | 0.0 | 0.0 | 0.00 | 0.00 | 0.00 | 99 | 993.1 | |
| 20260505221601 | 10 | 0.0 | 0.0 | 0.00 | 0.00 | 0.00 | 99 | 993.0 | |
| 20260505220558 | 10 | 0.0 | 0.0 | 0.00 | 0.00 | 0.00 | 99 | 992.9 | |
| 20260505215529 | 10 | 0.0 | 0.0 | 0.00 | 0.00 | 0.00 | 99 | 992.9 | |
| 20260505214526 | 10 | 0.0 | 0.0 | 0.00 | 0.00 | 0.00 | 99 | 993.0 | |
| 20260505213537 | 10 | 0.0 | 0.0 | 0.00 | 0.00 | 0.00 | 99 | 993.0 | |
| 20260505212614 | 10 | 0.0 | 0.0 | 0.00 | 0.00 | 0.00 | 99 | 993.0 | |
| 20260505211605 | 10 | 0.0 | 0.0 | 0.00 | 0.00 | 0.00 | 99 | 993.0 | |
| 20260505210602 | 10 | 0.0 | 0.0 | 0.00 | 0.00 | 0.00 | 99 | 993.1 | |
| 20260505205554 | 10 | 0.0 | 0.0 | 0.00 | 0.00 | 0.00 | 98 | 993.2 | |
| 20260505204551 | 10 | 0.0 | 0.0 | 0.00 | 0.00 | 0.00 | 97 | 993.2 | |
| 20260505203541 | 10 | 0.0 | 0.0 | 0.00 | 0.00 | 0.00 | 96 | 993.3 | |
| 20260505202538 | 10 | 0.0 | 0.0 | 0.00 | 0.00 | 0.00 | 95 | 993.3 | |
| 20260505201549 | 11 | 0.0 | 0.0 | 0.00 | 0.00 | 0.00 | 95 | 993.4 | |
| 20260505200526 | 11 | 0.0 | 0.0 | 0.00 | 0.00 | 0.00 | 94 | 993.4 | |
| 20260505195517 | 11 | 0.0 | 0.0 | 0.00 | 0.00 | 0.00 | 93 | 993.3 | |
| 20260505194614 | 11 | 0.0 | 0.0 | 0.00 | 0.00 | 0.00 | 91 | 993.4 | |
| 20260505193625 | 11 | 0.0 | 0.0 | 0.00 | 0.00 | 0.00 | 90 | 993.5 | |
| 20260505192602 | 11 | 0.0 | 0.0 | 0.00 | 0.00 | 0.00 | 90 | 993.5 | |
| 20260505191554 | 11 | 0.0 | 0.0 | 0.00 | 0.00 | 0.00 | 89 | 993.6 | |
| 20260505190550 | 12 | 0.0 | 0.0 | 0.00 | 0.00 | 0.00 | 89 | 993.4 | |
| 20260505185601 | 12 | 0.0 | 0.0 | 0.00 | 0.00 | 0.00 | 88 | 993.5 | |
| 20260505184538 | 12 | 0.0 | 0.0 | 0.00 | 0.00 | 0.00 | 87 | 993.6 | |
| 20260505183529 | 12 | 0.0 | 0.0 | 0.00 | 0.00 | 0.00 | 86 | 993.4 | |
| 20260505182526 | 12 | 0.0 | 0.0 | 0.00 | 0.00 | 0.00 | 86 | 993.3 | |
| 20260505181517 | 12 | 0.0 | 0.0 | 0.00 | 0.00 | 0.00 | 87 | 993.2 | |
| 20260505180614 | 13 | 0.0 | 0.0 | 0.00 | 0.00 | 0.00 | 86 | 993.2 | |
| 20260505175605 | 13 | 0.0 | 0.0 | 0.00 | 0.00 | 0.00 | 85 | 993.0 | |
| 20260505174602 | 13 | 0.0 | 0.0 | 0.00 | 0.00 | 0.00 | 84 | 992.9 | |
| 20260505173553 | 13 | 0.0 | 0.0 | 0.00 | 0.00 | 0.00 | 83 | 992.9 | |
| 20260505172550 | 13 | 0.0 | 0.0 | 0.00 | 0.00 | 0.00 | 82 | 993.0 | |
| 20260505171541 | 13 | 0.0 | 0.0 | 0.00 | 0.00 | 0.00 | 83 | 993.0 | |
| 20260505170538 | 14 | 0.0 | 0.0 | 0.00 | 0.00 | 0.00 | 82 | 993.1 | |
| 20260505165549 | 14 | 0.0 | 0.0 | 0.00 | 0.00 | 0.00 | 82 | 993.1 | |
| 20260505164526 | 14 | 0.0 | 0.0 | 0.00 | 0.00 | 0.00 | 80 | 993.2 | |
| 20260505163517 | 14 | 0.0 | 0.0 | 0.00 | 0.00 | 0.00 | 80 | 993.1 | |
| 20260505162614 | 15 | 0.0 | 0.0 | 0.00 | 0.00 | 0.00 | 80 | 993.1 | |
| 20260505161605 | 15 | 0.0 | 0.0 | 0.00 | 0.00 | 0.00 | 79 | 993.0 | |
| 20260505160602 | 15 | 0.0 | 0.0 | 0.00 | 0.00 | 0.00 | 77 | 993.2 | |
| 20260505152558 | 15 | 0.0 | 0.0 | 0.00 | 0.00 | 0.00 | 74 | 993.3 | |
| 20260505151529 | 15 | 0.0 | 0.0 | 0.00 | 0.00 | 0.00 | 72 | 993.4 | |
| 20260505150526 | 16 | 0.0 | 0.0 | 0.00 | 0.00 | 0.00 | 69 | 993.6 |